TimeCDT,TemperatureF,Dew PointF,Humidity,Sea Level PressureIn,VisibilityMPH,Wind Direction,Wind SpeedMPH,Gust SpeedMPH,PrecipitationIn,Events,Conditions,WindDirDegrees,DateUTC
12:53 AM,64.9,57.9,78,29.79,10.0,SE,4.6,-,N/A,,Clear,130,2013-10-02 05:53:00
1:53 AM,63.0,57.0,81,29.78,10.0,Calm,Calm,-,N/A,,Clear,0,2013-10-02 06:53:00
2:53 AM,62.1,55.9,80,29.78,10.0,Calm,Calm,-,N/A,,Clear,0,2013-10-02 07:53:00
3:53 AM,59.0,55.0,87,29.77,10.0,Calm,Calm,-,N/A,,Clear,0,2013-10-02 08:53:00
4:53 AM,55.9,54.0,93,29.77,10.0,Calm,Calm,-,N/A,,Clear,0,2013-10-02 09:53:00
5:53 AM,57.9,55.9,93,29.77,10.0,Calm,Calm,-,N/A,,Clear,0,2013-10-02 10:53:00
6:53 AM,57.0,55.0,93,29.78,10.0,South,4.6,-,N/A,,Clear,180,2013-10-02 11:53:00
7:53 AM,54.0,52.0,93,29.80,10.0,Calm,Calm,-,N/A,,Clear,0,2013-10-02 12:53:00
8:53 AM,57.0,55.0,93,29.81,9.0,South,4.6,-,N/A,,Clear,190,2013-10-02 13:53:00
9:53 AM,64.0,57.9,80,29.80,10.0,SSW,11.5,-,N/A,,Clear,200,2013-10-02 14:53:00
10:53 AM,70.0,57.9,65,29.78,10.0,South,8.1,-,N/A,,Clear,190,2013-10-02 15:53:00
11:53 AM,75.0,57.9,55,29.77,10.0,South,4.6,-,N/A,,Clear,190,2013-10-02 16:53:00
12:53 PM,79.0,57.0,47,29.74,10.0,South,8.1,-,N/A,,Clear,180,2013-10-02 17:53:00
1:53 PM,84.0,57.0,40,29.71,10.0,SE,9.2,-,N/A,,Clear,140,2013-10-02 18:53:00
2:53 PM,86.0,57.0,37,29.68,10.0,SSE,8.1,17.3,N/A,,Clear,150,2013-10-02 19:53:00
3:53 PM,88.0,53.1,30,29.65,10.0,SSE,10.4,20.7,N/A,,Clear,160,2013-10-02 20:53:00
4:53 PM,89.1,48.9,25,29.63,10.0,SSE,16.1,24.2,N/A,,Clear,160,2013-10-02 21:53:00
5:53 PM,90.0,37.9,16,29.62,10.0,SSW,16.1,25.3,N/A,,Clear,200,2013-10-02 22:53:00
6:53 PM,84.9,34.0,16,29.65,10.0,South,10.4,-,N/A,,Clear,190,2013-10-02 23:53:00
7:53 PM,80.1,54.0,40,29.68,10.0,SSE,11.5,23.0,N/A,,Clear,160,2013-10-03 00:53:00
8:53 PM,75.9,57.0,52,29.69,10.0,SSE,12.7,-,N/A,,Clear,160,2013-10-03 01:53:00
9:53 PM,73.9,60.1,62,29.70,10.0,South,13.8,-,N/A,,Clear,170,2013-10-03 02:53:00
10:53 PM,72.0,60.1,66,29.69,10.0,South,13.8,-,N/A,,Clear,170,2013-10-03 03:53:00
11:53 PM,72.0,61.0,68,29.66,10.0,South,17.3,-,N/A,,Clear,170,2013-10-03 04:53:00